[[{"header":{"parameterUnit":"m.s-1","parameterCategory":1,"la1":30.2991,"la2":30.254,"lo1":-89.0895,"lo2":-89.0444,"dy":0.0017,"dx":0.0017,"nx":28,"ny":28,"refTime":"2025-09-07T21:00:00:Z","depth":0,"parameterNumber":2,"parameterNumberName":"U-component_of_WINDS"},"data":[0,0,0,0,0,0,0,0,0,0,0,0,0,0,0,0,0,0,0,0,0,0,0,0,0,0,0,0,0,0,0,0,0,0,0,0,0,0,0,0,0,0,0,0,0,0,0,0,0,0,0,0,0,0,0,0,0,0,-0.5916,-0.5916,0,-0.5921,-0.5922,-0.5922,-0.5904,-0.5903,-0.5903,-0.5902,-0.5908,-0.5909,-0.591,0,0,0,0,0,0,0,0,0,0,0,0,0,-0.5889,-0.5889,-0.5916,-0.5916,-0.5916,-0.5921,-0.5922,-0.5922,-0.5904,-0.5903,-0.5902,-0.5902,-0.5908,-0.5909,-0.591,0,0,0,0,0,0,0,0,0,0,0,0,0,-0.5898,-0.5889,-0.5916,-0.5908,-0.5907,-0.5921,-0.5922,-0.5922,-0.5904,-0.5903,-0.5902,-0.5901,-0.5908,-0.5909,-0.591,-0.5933,0,0,-0.5913,-0.5913,0,0,0,0,0,0,0,0,-0.5898,-0.5899,-0.5909,-0.5908,-0.5907,-0.5911,-0.5914,-0.5925,-0.5904,-0.5905,-0.5902,-0.5901,-0.591,-0.5911,-0.5914,-0.5933,-0.5933,-0.5913,-0.5914,-0.5914,-0.5914,0,0,0,0,0,0,0,-0.5897,-0.5899,-0.5918,-0.5909,-0.5908,-0.5903,-0.5904,-0.5916,-0.5912,-0.5905,-0.5904,-0.5904,-0.5909,-0.5913,-0.5914,-0.5933,-0.5913,-0.5914,-0.5915,-0.5915,-0.5972,-0.5972,0,0,0,0,0,0,-0.5897,-0.5898,-0.5918,-0.5918,-0.59,-0.5905,-0.5905,-0.5911,-0.5912,-0.5911,-0.5905,-0.5904,-0.5911,-0.5912,-0.5914,-0.5941,-0.5914,-0.5915,-0.5916,-0.5971,-0.5972,-0.5973,0,0,0,0,0,0,-0.5897,-0.5899,-0.5918,-0.5908,-0.591,-0.5906,-0.5912,-0.5911,-0.5914,-0.5912,-0.5911,-0.5909,-0.5911,-0.5912,-0.5928,-0.5941,-0.5916,-0.5916,-0.597,-0.5971,-0.5972,-0.5995,0,0,0,0,0,0,-0.5896,-0.5899,-0.5908,-0.5908,-0.591,-0.5932,-0.5913,-0.5912,-0.5916,-0.5914,-0.5916,-0.5915,-0.591,-0.5927,-0.5929,-0.5942,-0.5917,-0.5969,-0.597,-0.5972,-0.5993,-0.5997,-0.6,0,0,0,0,0,-0.5895,-0.5914,-0.5909,-0.5911,-0.5921,-0.5933,-0.5934,-0.5928,-0.5917,-0.5926,-0.5924,-0.5915,-0.5939,-0.5928,-0.5931,-0.5944,-0.5968,-0.597,-0.5972,-0.5992,-0.5996,-0.6,0,0,0,0,0,0,-0.5916,-0.5914,-0.5908,-0.5927,-0.593,-0.593,-0.5941,-0.5933,-0.5939,-0.5937,-0.5929,-0.5929,-0.5946,-0.5947,-0.5935,-0.5966,-0.5951,-0.5954,-0.5966,-0.597,-0.5974,-0.5974,-0.5918,0,0,0,0,0,-0.5923,-0.5932,-0.593,-0.5948,-0.5949,-0.5945,-0.5949,-0.5944,-0.5947,-0.5948,-0.5948,-0.5951,-0.5959,-0.5964,-0.5971,-0.5993,-0.5993,-0.6003,-0.6007,-0.601,-0.6012,-0.6024,-0.6028,-0.5979,-0.5979,-0.5979,0,0,-0.5937,-0.5937,-0.5944,-0.5952,-0.5953,-0.5963,-0.5946,-0.5957,-0.5964,-0.595,-0.5965,-0.5964,-0.5967,-0.5986,-0.5994,-0.5987,-0.6026,-0.6012,-0.6014,-0.6016,-0.6026,-0.6031,-0.6035,-0.5981,-0.598,-0.598,0,0,-0.5968,-0.5969,-0.5984,-0.5986,-0.5988,-0.5985,-0.5989,-0.5989,-0.5988,-0.6003,-0.5992,-0.6,-0.6014,-0.6017,-0.602,-0.6051,-0.6043,-0.6054,-0.6073,-0.6084,-0.6088,-0.6091,-0.6103,-0.6107,-0.6056,-0.6056,-0.6056,0,-0.5986,-0.6001,-0.5993,-0.6005,-0.6009,-0.5995,-0.601,-0.6012,-0.6017,-0.602,-0.6011,-0.6029,-0.6029,-0.6049,-0.6056,-0.6059,-0.6063,-0.6054,-0.6088,-0.6091,-0.6094,-0.6106,-0.611,-0.6058,-0.6057,-0.6057,-0.6057,0,-0.6022,-0.6032,-0.6044,-0.6049,-0.6054,-0.6067,-0.6061,-0.6067,-0.6061,-0.6059,-0.6074,-0.6074,-0.6082,-0.6085,-0.608,-0.6104,-0.6099,-0.6089,-0.6075,-0.6101,-0.6111,-0.6115,-0.606,-0.6059,-0.6059,-0.6058,0,0,-0.6068,-0.6068,-0.6072,-0.6074,-0.6076,-0.6084,-0.6096,-0.6103,-0.6108,-0.6112,-0.6122,-0.6134,-0.6125,-0.6128,-0.6123,-0.6132,-0.6158,-0.6121,-0.6121,-0.6129,-0.6185,-0.6193,-0.6198,-0.6152,-0.6152,-0.6153,-0.6185,0,-0.61,-0.6121,-0.6114,-0.6136,-0.6146,-0.6133,-0.6144,-0.6146,-0.6143,-0.6151,-0.6148,-0.6157,-0.6144,-0.6146,-0.6155,-0.6153,-0.6169,-0.615,-0.6162,-0.6163,-0.6163,-0.6203,-0.6212,-0.6242,-0.6189,-0.6189,-0.619,0,-0.614,-0.6144,-0.6168,-0.6167,-0.6171,-0.6181,-0.6186,-0.6194,-0.6195,-0.6193,-0.6197,-0.6189,-0.6201,-0.6185,-0.6202,-0.6189,-0.6193,-0.6193,-0.6194,-0.6196,-0.6179,-0.6207,-0.6251,-0.6256,-0.6196,-0.6195,-0.6195,0,-0.6172,-0.6184,-0.6199,-0.6201,-0.6201,-0.6208,-0.6209,-0.6209,-0.6214,-0.6218,-0.6221,-0.6227,-0.6231,-0.6236,-0.6229,-0.6218,-0.6247,-0.6231,-0.6246,-0.6247,-0.6254,-0.6254,-0.6301,-0.6255,-0.6255,-0.6255,-0.6255,0,-0.6208,-0.6223,-0.6214,-0.6223,-0.624,-0.6231,-0.6247,-0.6245,-0.6246,-0.6255,-0.6244,-0.6253,-0.6244,-0.6251,-0.6247,-0.6262,-0.6263,-0.6262,-0.6261,-0.6263,-0.6264,-0.6267,-0.6265,-0.6256,-0.6256,-0.6256,-0.6255,0,-0.6248,-0.6242,-0.6258,-0.6256,-0.6256,-0.6268,-0.6266,-0.6275,-0.6271,-0.6283,-0.6285,-0.628,-0.6288,-0.6282,-0.6291,-0.6288,-0.6308,-0.6303,-0.6307,-0.6306,-0.6322,-0.6321,-0.6374,-0.638,-0.6329,-0.633,-0.633,0,-0.6272,-0.6283,-0.6282,-0.6287,-0.6288,-0.6297,-0.6301,-0.6292,-0.6297,-0.63,-0.6309,-0.6316,-0.6322,-0.6336,-0.6333,-0.634,-0.6336,-0.6353,-0.6337,-0.6339,-0.6337,-0.6337,-0.6338,-0.6357,-0.6358,-0.6358,-0.6359,0,-0.6316,-0.6312,-0.6319,-0.6325,-0.633,-0.6334,-0.6338,-0.6342,-0.6334,-0.634,-0.6348,-0.6353,-0.6361,-0.6369,-0.6374,-0.6374,-0.6366,-0.6364,-0.6368,-0.6372,-0.6374,-0.6374,-0.6318,-0.6363,-0.6363,-0.6362,-0.6362,-0.6362,-0.6349,-0.6359,-0.6359,-0.6367,-0.6368,-0.6371,-0.638,-0.6377,-0.6384,-0.639,-0.6384,-0.6395,-0.6396,-0.6402,-0.6403,-0.6411,-0.6404,-0.6409,-0.6411,-0.6413,-0.6416,-0.6372,-0.6412,-0.6412,-0.6411,-0.6411,-0.6411,0,-0.6394,-0.6393,-0.64,-0.6405,-0.6411,-0.6401,-0.6404,-0.641,-0.6419,-0.6421,-0.6426,-0.6436,-0.6443,-0.6441,-0.6447,-0.6454,-0.645,-0.6456,-0.6456,-0.6456,-0.6421,-0.6418,-0.6459,-0.6459,-0.6459,-0.6459,-0.6459,-0.6459,-0.6417,-0.6433,-0.6429,-0.6445,-0.6444,-0.6454,-0.6457,-0.646,-0.6461,-0.6472,-0.6478,-0.6476,-0.6476,-0.6482,-0.6488,-0.6487,-0.6491,-0.6498,-0.6496,-0.6464,-0.6459,-0.6454,-0.6451,-0.6499,-0.6499,-0.6531,-0.6531,-0.6531]},{"header":{"parameterUnit":"m.s-1","parameterCategory":1,"la1":30.2991,"la2":30.254,"lo1":-89.0895,"lo2":-89.0444,"dy":0.0017,"dx":0.0017,"nx":28,"ny":28,"refTime":"2025-09-07T21:00:00:Z","depth":0,"parameterNumber":3,"parameterNumberName":"V-component_of_WINDS"},"data":[0,0,0,0,0,0,0,0,0,0,0,0,0,0,0,0,0,0,0,0,0,0,0,0,0,0,0,0,0,0,0,0,0,0,0,0,0,0,0,0,0,0,0,0,0,0,0,0,0,0,0,0,0,0,0,0,0,0,-2.9334,-2.9334,0,-2.9345,-2.9345,-2.9345,-2.9314,-2.9313,-2.9312,-2.9311,-2.932,-2.9321,-2.9322,0,0,0,0,0,0,0,0,0,0,0,0,0,-2.9287,-2.9289,-2.9334,-2.9334,-2.9334,-2.9345,-2.9345,-2.9345,-2.9314,-2.9313,-2.9312,-2.9311,-2.932,-2.9321,-2.9322,0,0,0,0,0,0,0,0,0,0,0,0,0,-2.9304,-2.9289,-2.9334,-2.932,-2.9319,-2.9344,-2.9345,-2.9345,-2.9314,-2.9313,-2.9312,-2.931,-2.9319,-2.9321,-2.9323,-2.9361,0,0,-2.9328,-2.9328,0,0,0,0,0,0,0,0,-2.9303,-2.9305,-2.9322,-2.9321,-2.932,-2.9327,-2.9331,-2.935,-2.9315,-2.9316,-2.9311,-2.931,-2.9323,-2.9324,-2.9329,-2.9361,-2.9362,-2.9328,-2.9329,-2.9329,-2.933,0,0,0,0,0,0,0,-2.9302,-2.9305,-2.9338,-2.9323,-2.9321,-2.9314,-2.9314,-2.9335,-2.9327,-2.9316,-2.9314,-2.9316,-2.9322,-2.9328,-2.9329,-2.9362,-2.9328,-2.9329,-2.933,-2.9331,-2.9428,-2.943,0,0,0,0,0,0,-2.9303,-2.9304,-2.9338,-2.9338,-2.9308,-2.9316,-2.9316,-2.9326,-2.9327,-2.9326,-2.9317,-2.9314,-2.9326,-2.9328,-2.933,-2.9377,-2.9329,-2.9331,-2.9332,-2.9427,-2.9429,-2.9431,0,0,0,0,0,0,-2.9302,-2.9306,-2.9337,-2.9321,-2.9324,-2.9318,-2.9329,-2.9327,-2.9332,-2.9328,-2.9326,-2.9324,-2.9325,-2.9327,-2.9354,-2.9377,-2.9332,-2.9333,-2.9425,-2.9427,-2.943,-2.9471,0,0,0,0,0,0,-2.9301,-2.9306,-2.932,-2.9321,-2.9325,-2.9362,-2.933,-2.9328,-2.9336,-2.9332,-2.9334,-2.9333,-2.9324,-2.9352,-2.9356,-2.9378,-2.9335,-2.9423,-2.9426,-2.9429,-2.9467,-2.9474,-2.948,0,0,0,0,0,-2.9299,-2.933,-2.9321,-2.9325,-2.9343,-2.9363,-2.9365,-2.9355,-2.9337,-2.9352,-2.935,-2.9333,-2.9373,-2.9355,-2.9359,-2.9382,-2.9422,-2.9425,-2.9429,-2.9464,-2.9473,-2.948,0,0,0,0,0,0,-2.9331,-2.933,-2.932,-2.9353,-2.9359,-2.9358,-2.9376,-2.9364,-2.9374,-2.937,-2.9356,-2.9357,-2.9387,-2.9387,-2.9366,-2.9421,-2.9394,-2.9399,-2.942,-2.9428,-2.9434,-2.9434,-2.9336,0,0,0,0,0,-2.9342,-2.9358,-2.9357,-2.9386,-2.9389,-2.9383,-2.9391,-2.9382,-2.9387,-2.939,-2.9389,-2.9394,-2.9408,-2.9418,-2.943,-2.9466,-2.9468,-2.9485,-2.9491,-2.9496,-2.9501,-2.9523,-2.9531,-2.9442,-2.9442,-2.9442,0,0,-2.9364,-2.9366,-2.9377,-2.9392,-2.9396,-2.9414,-2.9385,-2.9404,-2.9418,-2.9392,-2.9419,-2.9418,-2.9423,-2.9456,-2.947,-2.9457,-2.9526,-2.9501,-2.9505,-2.9507,-2.9527,-2.9536,-2.9543,-2.9445,-2.9444,-2.9444,0,0,-2.9415,-2.9417,-2.9443,-2.9448,-2.9454,-2.945,-2.9456,-2.9458,-2.9457,-2.9484,-2.9466,-2.9481,-2.9505,-2.951,-2.9516,-2.9571,-2.9557,-2.9576,-2.9609,-2.9631,-2.9638,-2.9644,-2.9666,-2.9674,-2.958,-2.958,-2.958,0,-2.9442,-2.9469,-2.9457,-2.948,-2.9488,-2.9466,-2.9493,-2.9498,-2.9508,-2.9514,-2.9499,-2.953,-2.9532,-2.9567,-2.9581,-2.9585,-2.9593,-2.9576,-2.9638,-2.9644,-2.9649,-2.967,-2.9678,-2.9582,-2.9582,-2.9582,-2.9582,0,-2.9503,-2.9522,-2.9542,-2.9554,-2.9564,-2.9588,-2.9581,-2.9592,-2.9583,-2.9581,-2.9609,-2.961,-2.9624,-2.9631,-2.9622,-2.9665,-2.9657,-2.964,-2.9614,-2.9661,-2.968,-2.9688,-2.9586,-2.9585,-2.9584,-2.9584,0,0,-2.9574,-2.9581,-2.9589,-2.9595,-2.9601,-2.9616,-2.9639,-2.9654,-2.9665,-2.9673,-2.9693,-2.9715,-2.97,-2.9707,-2.9698,-2.9716,-2.9763,-2.9697,-2.9697,-2.9711,-2.9814,-2.9828,-2.9838,-2.9753,-2.9754,-2.9755,-2.9814,0,-2.9626,-2.9668,-2.9659,-2.97,-2.9719,-2.97,-2.9721,-2.9727,-2.9726,-2.9741,-2.9739,-2.9756,-2.9733,-2.9738,-2.9755,-2.9754,-2.9784,-2.9749,-2.9773,-2.9774,-2.9775,-2.9847,-2.9862,-2.9917,-2.9821,-2.9823,-2.9823,0,-2.9692,-2.9705,-2.9748,-2.9754,-2.9762,-2.9781,-2.9795,-2.9809,-2.9817,-2.9814,-2.9823,-2.9811,-2.9835,-2.9808,-2.9841,-2.9818,-2.9827,-2.9828,-2.983,-2.9833,-2.9803,-2.9855,-2.9934,-2.9944,-2.9835,-2.9834,-2.9833,0,-2.9743,-2.977,-2.98,-2.9806,-2.9813,-2.9827,-2.9831,-2.9836,-2.9847,-2.9858,-2.9865,-2.9879,-2.9887,-2.9898,-2.9891,-2.9871,-2.9927,-2.9898,-2.9927,-2.9927,-2.9941,-2.994,-3.0025,-2.9943,-2.9943,-2.9943,-2.9943,0,-2.9803,-2.9831,-2.9824,-2.9843,-2.9874,-2.9864,-2.9895,-2.9896,-2.9902,-2.9921,-2.9904,-2.9922,-2.991,-2.9927,-2.9921,-2.9952,-2.9955,-2.9954,-2.9953,-2.9957,-2.9958,-2.9964,-2.9961,-2.9945,-2.9945,-2.9944,-2.9944,0,-2.9865,-2.9861,-2.9894,-2.9898,-2.99,-2.9923,-2.9927,-2.9945,-2.9943,-2.9967,-2.9972,-2.9969,-2.9988,-2.9982,-3.0002,-2.9998,-3.0038,-3.003,-3.0036,-3.0035,-3.0065,-3.0063,-3.0159,-3.0172,-3.0079,-3.008,-3.0081,0,-2.9905,-2.9926,-2.9934,-2.9947,-2.9952,-2.9971,-2.9982,-2.9973,-2.9985,-2.9997,-3.0014,-3.0032,-3.0047,-3.0079,-3.0078,-3.0094,-3.0088,-3.012,-3.009,-3.0095,-3.0091,-3.0091,-3.0094,-3.0127,-3.0128,-3.0129,-3.013,0,-2.9977,-2.9975,-2.9991,-3.0009,-3.0023,-3.0035,-3.0046,-3.0057,-3.0049,-3.0063,-3.0084,-3.0096,-3.0118,-3.0137,-3.0152,-3.0155,-3.0142,-3.0139,-3.0147,-3.0153,-3.0156,-3.0157,-3.0055,-3.0137,-3.0137,-3.0136,-3.0136,-3.0135,-3.0031,-3.005,-3.006,-3.008,-3.0088,-3.0099,-3.0117,-3.0118,-3.0135,-3.0154,-3.0147,-3.0171,-3.0179,-3.0198,-3.0204,-3.0223,-3.021,-3.0221,-3.0224,-3.0228,-3.0233,-3.0152,-3.0225,-3.0225,-3.0225,-3.0225,-3.0224,0,-3.0104,-3.011,-3.0128,-3.0146,-3.0162,-3.0148,-3.016,-3.0175,-3.0197,-3.0206,-3.0222,-3.0247,-3.0266,-3.0267,-3.0285,-3.03,-3.0294,-3.0305,-3.0305,-3.0306,-3.0242,-3.0234,-3.0309,-3.0309,-3.0309,-3.0309,-3.0309,-3.0309,-3.0144,-3.0177,-3.0176,-3.0214,-3.0219,-3.0244,-3.0252,-3.0263,-3.0271,-3.03,-3.0316,-3.0317,-3.0323,-3.0342,-3.0359,-3.0359,-3.0367,-3.0381,-3.0379,-3.0319,-3.031,-3.0302,-3.0296,-3.0382,-3.0382,-3.0442,-3.0442,-3.0443]}]]